GSAT-11 (43824 NORAD) Tracking and Keplerian Element Data

This shows tracking and keplerian element data for the satellite.

Feedback or suggestion? Click here.




ElementValue
Catalog43824
NameGSAT-11
Epoch Orbit143
Epoch Day112.83020309
Epoch Year2019
RAAN126.8359
Inclination0.0374
Eccentricity0.0007014
Argument of Perigee298.3468
Mean Anonmoly158.2498
Mean Motion1.0027254
Decay Rate-9.3E-07
L11 43824U 18100B 19112.83020309 -.00000093 00000-0 00000+0 0 9992
L22 43824 0.0374 126.8359 0007014 298.3468 158.2498 1.00272540 1439

Live tracking and technical data element details for GSAT-11 (NORAD 43824). GSAT-11 can be tracked NOW for your location showing map with azimuth and elevation plus other details from your city location.

Track the satellite on the map from your city or location and see movement details for azimuth, elevation, latitude, longitude, range, height, and movement on the map or in text.







IsCatalogInMostPopularTable: catalog: 43824, numindb: 49
Update: records affected: 1



GetName: 43824 GSAT-11

Hit Count: updated at: Tue, 23 Apr 2019 20:54:44 GMT